Location: Home
(42.5358°N, 72.7383°W)
Time: 02:24:57
(UTC-05:00)

A-11 Canister half - Visible Passes

Search period start: 01 December 2022 00:00
Search period end: 11 December 2022 00:00
Orbit: 1515 x 1684 km, 47.2° (Epoch: 30 November)

Date Brightness Start Highest point End Pass type
(mag) Time Alt. Az. Time Alt. Az. Time Alt. Az.
01 Dec 10.8 01:58:13 18° ESE 01:58:13 18° ESE 02:02:46 10° E visible
01 Dec 9.3 03:56:29 41° SSW 04:00:02 61° SE 04:09:48 10° ENE visible
01 Dec 9.2 05:55:13 10° W 06:05:04 75° NNW 06:15:14 10° ENE visible
02 Dec 11.0 01:37:10 14° E 01:37:10 14° E 01:39:27 10° E visible
02 Dec 9.3 03:35:24 52° S 03:37:07 58° SE 03:46:48 10° ENE visible
02 Dec 9.1 05:33:39 16° W 05:42:04 76° NNW 05:52:13 10° ENE visible
03 Dec 11.3 01:16:00 10° E 01:16:00 10° E 01:16:04 10° E visible
03 Dec 9.4 03:14:14 55° SE 03:14:14 55° SE 03:23:47 10° ENE visible
03 Dec 9.1 05:12:28 24° W 05:19:04 78° NNW 05:29:13 10° ENE visible
04 Dec 9.6 02:52:57 48° ESE 02:52:57 48° ESE 03:00:47 10° ENE visible
04 Dec 9.0 04:51:11 35° W 04:56:05 79° NNW 05:06:13 10° ENE visible
05 Dec 10.0 02:31:35 38° E 02:31:35 38° E 02:37:47 10° ENE visible
05 Dec 9.0 04:29:49 49° W 04:33:06 81° NNW 04:43:13 10° ENE visible
05 Dec 9.3 06:29:03 10° WNW 06:38:56 68° N 06:49:04 10° E visible
06 Dec 10.4 02:10:10 29° E 02:10:10 29° E 02:14:45 10° ENE visible
06 Dec 8.9 04:08:23 66° W 04:10:07 83° NNW 04:20:12 10° ENE visible
06 Dec 9.3 06:06:35 12° WNW 06:15:55 68° N 06:26:02 10° E visible
07 Dec 10.7 01:48:42 21° E 01:48:42 21° E 01:51:44 10° ENE visible
07 Dec 8.9 03:46:54 84° WNW 03:47:08 85° NNW 03:57:12 10° ENE visible
07 Dec 9.2 05:45:07 18° WNW 05:52:54 68° N 06:03:00 10° E visible
08 Dec 11.0 01:27:10 15° ENE 01:27:10 15° ENE 01:28:41 10° ENE visible
08 Dec 9.1 03:25:22 73° ENE 03:25:22 73° ENE 03:34:12 10° ENE visible
08 Dec 9.2 05:23:35 26° WNW 05:29:53 67° N 05:39:58 10° E visible
09 Dec 11.3 01:05:36 10° ENE 01:05:36 10° ENE 01:05:39 10° ENE visible
09 Dec 9.4 03:03:48 56° ENE 03:03:48 56° ENE 03:11:12 10° ENE visible
09 Dec 9.2 05:02:00 34° WNW 05:06:52 67° N 05:16:55 10° E visible
10 Dec 9.8 02:42:13 43° ENE 02:42:13 43° ENE 02:48:13 10° ENE visible
10 Dec 9.1 04:40:25 44° WNW 04:43:51 67° N 04:53:53 10° E visible
